Time,TemperatureF,DewpointF,PressureIn,WindDirection,WindDirectionDegrees,WindSpeedMPH,WindSpeedGustMPH,Humidity,HourlyPrecipIn,Conditions,Clouds,dailyrainin,SoftwareType,DateUTC
2013-10-31 00:00:00,58.4,57.0,30.11,ESE,121,0.0,0.0,95,0.00,,---,0.00,VWS V14.01,2013-10-31 04:00:00,
2013-10-31 00:01:00,58.4,57.0,30.11,ESE,121,0.0,0.0,95,0.00,,---,0.00,VWS V14.01,2013-10-31 04:01:00,
2013-10-31 00:02:00,58.4,57.0,30.11,ESE,121,0.0,1.0,95,0.00,,---,0.00,VWS V14.01,2013-10-31 04:02:00,
2013-10-31 00:05:00,59.8,57.8,30.11,ESE,120,0.0,0.0,93,0.00,,---,0.00,VWS V14.01,2013-10-31 04:05:00,
2013-10-31 00:07:00,58.3,56.9,30.11,ESE,120,0.0,0.0,95,0.00,,---,0.00,VWS V14.01,2013-10-31 04:07:00,
2013-10-31 00:10:00,59.7,57.7,30.11,ESE,120,0.0,0.0,93,0.00,,---,0.00,VWS V14.01,2013-10-31 04:10:00,
2013-10-31 00:12:00,58.4,57.0,30.11,ESE,121,0.0,0.0,95,0.00,,---,0.00,VWS V14.01,2013-10-31 04:12:00,
2013-10-31 00:15:00,59.7,57.7,30.11,ESE,120,0.0,0.0,93,0.00,,---,0.00,VWS V14.01,2013-10-31 04:15:00,
2013-10-31 00:17:00,58.3,56.9,30.11,ESE,121,0.0,1.0,95,0.00,,---,0.00,VWS V14.01,2013-10-31 04:17:00,
2013-10-31 00:20:00,59.6,57.6,30.11,ESE,120,0.0,0.0,93,0.00,,---,0.00,VWS V14.01,2013-10-31 04:20:00,
2013-10-31 00:22:00,58.2,56.8,30.10,ESE,120,0.0,0.0,95,0.00,,---,0.00,VWS V14.01,2013-10-31 04:22:00,
2013-10-31 00:25:00,59.5,57.5,30.11,ESE,120,0.0,0.0,93,0.00,,---,0.00,VWS V14.01,2013-10-31 04:25:00,
2013-10-31 00:27:00,58.2,56.8,30.10,ESE,121,0.0,1.0,95,0.00,,---,0.00,VWS V14.01,2013-10-31 04:27:00,
2013-10-31 00:30:00,59.5,57.8,30.12,ESE,120,0.0,0.0,94,0.00,,---,0.00,VWS V14.01,2013-10-31 04:30:00,
2013-10-31 00:32:00,58.1,56.7,30.09,ESE,120,0.0,0.0,95,0.00,,---,0.00,VWS V14.01,2013-10-31 04:32:00,
2013-10-31 00:35:00,59.6,57.6,30.12,ESE,120,0.0,1.0,93,0.00,,---,0.00,VWS V14.01,2013-10-31 04:35:00,
2013-10-31 00:37:00,58.2,56.8,30.09,ESE,121,0.0,0.0,95,0.00,,---,0.00,VWS V14.01,2013-10-31 04:37:00,
2013-10-31 00:40:00,59.8,57.8,30.12,ESE,120,0.0,1.0,93,0.00,,---,0.00,VWS V14.01,2013-10-31 04:40:00,
2013-10-31 00:42:00,58.1,56.4,30.09,ESE,121,0.0,0.0,94,0.00,,---,0.00,VWS V14.01,2013-10-31 04:42:00,
2013-10-31 00:45:00,59.8,57.8,30.12,ESE,121,0.0,0.0,93,0.00,,---,0.00,VWS V14.01,2013-10-31 04:45:00,
2013-10-31 00:47:00,58.0,56.6,30.09,ESE,120,0.0,0.0,95,0.00,,---,0.00,VWS V14.01,2013-10-31 04:47:00,
2013-10-31 00:50:00,59.7,57.7,30.12,ESE,120,0.0,0.0,93,0.00,,---,0.00,VWS V14.01,2013-10-31 04:50:00,
2013-10-31 00:52:00,57.9,56.5,30.09,ESE,120,0.0,0.0,95,0.00,,---,0.00,VWS V14.01,2013-10-31 04:52:00,
2013-10-31 00:55:00,59.5,57.5,30.12,ESE,120,0.0,0.0,93,0.00,,---,0.00,VWS V14.01,2013-10-31 04:55:00,
2013-10-31 00:57:00,57.9,56.5,30.09,ESE,120,0.0,0.0,95,0.00,,---,0.00,VWS V14.01,2013-10-31 04:57:00,
2013-10-31 01:00:00,59.3,57.3,30.12,ESE,120,0.0,0.0,93,0.00,,---,0.00,VWS V14.01,2013-10-31 05:00:00,
2013-10-31 01:02:00,58.0,56.6,30.09,ESE,120,0.0,0.0,95,0.00,,---,0.00,VWS V14.01,2013-10-31 05:02:00,
2013-10-31 01:05:00,59.0,57.3,30.12,ESE,120,0.0,0.0,94,0.00,,---,0.00,VWS V14.01,2013-10-31 05:05:00,
2013-10-31 01:07:00,58.2,56.8,30.10,ESE,120,0.0,0.0,95,0.00,,---,0.00,VWS V14.01,2013-10-31 05:07:00,
2013-10-31 01:10:00,58.9,57.2,30.12,ESE,120,0.0,0.0,94,0.00,,---,0.00,VWS V14.01,2013-10-31 05:10:00,
2013-10-31 01:12:00,58.2,56.8,30.09,ESE,121,0.0,0.0,95,0.00,,---,0.00,VWS V14.01,2013-10-31 05:12:00,
2013-10-31 01:15:00,58.7,57.0,30.12,ESE,121,0.0,0.0,94,0.00,,---,0.00,VWS V14.01,2013-10-31 05:15:00,
2013-10-31 01:17:00,58.4,57.0,30.09,ESE,121,0.0,0.0,95,0.00,,---,0.00,VWS V14.01,2013-10-31 05:17:00,
2013-10-31 01:20:00,58.6,56.9,30.11,ESE,120,0.0,0.0,94,0.00,,---,0.00,VWS V14.01,2013-10-31 05:20:00,
2013-10-31 01:22:00,58.6,56.9,30.09,ESE,120,0.0,0.0,94,0.00,,---,0.00,VWS V14.01,2013-10-31 05:22:00,
2013-10-31 01:25:00,58.4,57.0,30.11,ESE,120,0.0,0.0,95,0.00,,---,0.00,VWS V14.01,2013-10-31 05:25:00,
2013-10-31 01:28:00,58.5,56.8,30.09,ESE,121,0.0,0.0,94,0.00,,---,0.00,VWS V14.01,2013-10-31 05:28:00,
2013-10-31 01:30:00,58.4,57.0,30.11,ESE,121,0.0,0.0,95,0.00,,---,0.00,VWS V14.01,2013-10-31 05:30:00,
2013-10-31 01:33:00,58.4,56.7,30.09,ESE,120,0.0,0.0,94,0.00,,---,0.00,VWS V14.01,2013-10-31 05:33:00,
2013-10-31 01:35:00,58.3,56.9,30.11,ESE,120,0.0,0.0,95,0.00,,---,0.00,VWS V14.01,2013-10-31 05:35:00,
2013-10-31 01:38:00,58.2,56.5,30.08,ESE,120,0.0,0.0,94,0.00,,---,0.00,VWS V14.01,2013-10-31 05:38:00,
2013-10-31 01:40:00,58.2,56.8,30.11,ESE,120,0.0,0.0,95,0.00,,---,0.00,VWS V14.01,2013-10-31 05:40:00,
2013-10-31 01:43:00,58.1,56.4,30.08,ESE,121,0.0,0.0,94,0.00,,---,0.00,VWS V14.01,2013-10-31 05:43:00,
2013-10-31 01:45:00,58.4,57.3,30.11,ESE,120,0.0,0.0,96,0.00,,---,0.00,VWS V14.01,2013-10-31 05:45:00,
2013-10-31 01:48:00,57.9,56.5,30.08,ESE,121,0.0,0.0,95,0.00,,---,0.00,VWS V14.01,2013-10-31 05:48:00,
2013-10-31 01:50:00,58.5,57.1,30.11,ESE,120,0.0,0.0,95,0.00,,---,0.00,VWS V14.01,2013-10-31 05:50:00,
2013-10-31 01:53:00,57.8,56.4,30.08,ESE,120,0.0,0.0,95,0.00,,---,0.00,VWS V14.01,2013-10-31 05:53:00,
2013-10-31 01:55:00,58.5,57.1,30.11,ESE,120,0.0,1.0,95,0.00,,---,0.00,VWS V14.01,2013-10-31 05:55:00,
2013-10-31 01:58:00,58.0,56.6,30.08,ESE,121,0.0,0.0,95,0.00,,---,0.00,VWS V14.01,2013-10-31 05:58:00,
2013-10-31 02:00:00,58.4,57.0,30.11,ESE,121,0.0,0.0,95,0.00,,---,0.00,VWS V14.01,2013-10-31 06:00:00,
2013-10-31 02:03:00,58.0,56.6,30.08,ESE,121,0.0,0.0,95,0.00,,---,0.00,VWS V14.01,2013-10-31 06:03:00,
2013-10-31 02:05:00,58.3,56.9,30.11,ESE,120,0.0,1.0,95,0.00,,---,0.00,VWS V14.01,2013-10-31 06:05:00,
2013-10-31 02:08:00,58.1,56.7,30.08,ESE,120,0.0,0.0,95,0.00,,---,0.00,VWS V14.01,2013-10-31 06:08:00,
2013-10-31 02:10:00,58.4,57.0,30.11,ESE,120,0.0,0.0,95,0.00,,---,0.00,VWS V14.01,2013-10-31 06:10:00,
2013-10-31 02:13:00,58.1,56.7,30.08,ESE,121,0.0,0.0,95,0.00,,---,0.00,VWS V14.01,2013-10-31 06:13:00,
2013-10-31 02:15:00,58.3,56.9,30.11,ESE,121,0.0,0.0,95,0.00,,---,0.00,VWS V14.01,2013-10-31 06:15:00,
2013-10-31 02:18:00,58.1,56.7,30.08,ESE,120,0.0,0.0,95,0.00,,---,0.00,VWS V14.01,2013-10-31 06:18:00,
2013-10-31 02:20:00,58.2,56.8,30.10,ESE,121,0.0,1.0,95,0.00,,---,0.00,VWS V14.01,2013-10-31 06:20:00,
2013-10-31 02:23:00,58.0,56.6,30.08,ESE,121,0.0,0.0,95,0.00,,---,0.00,VWS V14.01,2013-10-31 06:23:00,
2013-10-31 02:25:00,58.2,56.8,30.10,ESE,120,0.0,0.0,95,0.00,,---,0.00,VWS V14.01,2013-10-31 06:25:00,
2013-10-31 02:28:00,57.8,56.4,30.07,ESE,121,0.0,0.0,95,0.00,,---,0.00,VWS V14.01,2013-10-31 06:28:00,
2013-10-31 02:30:00,58.2,56.8,30.10,ESE,121,0.0,1.0,95,0.00,,---,0.00,VWS V14.01,2013-10-31 06:30:00,
2013-10-31 02:33:00,57.8,56.4,30.07,ESE,120,0.0,0.0,95,0.00,,---,0.00,VWS V14.01,2013-10-31 06:33:00,
2013-10-31 02:35:00,58.1,56.7,30.09,ESE,120,0.0,0.0,95,0.00,,---,0.00,VWS V14.01,2013-10-31 06:35:00,
2013-10-31 02:38:00,57.9,56.5,30.08,ESE,120,0.0,0.0,95,0.00,,---,0.00,VWS V14.01,2013-10-31 06:38:00,
2013-10-31 02:40:00,58.2,56.8,30.10,ESE,120,0.0,0.0,95,0.00,,---,0.00,VWS V14.01,2013-10-31 06:40:00,
2013-10-31 02:43:00,57.9,56.5,30.08,ESE,121,0.0,0.0,95,0.00,,---,0.00,VWS V14.01,2013-10-31 06:43:00,
2013-10-31 02:45:00,58.1,56.7,30.10,ESE,121,0.0,0.0,95,0.00,,---,0.00,VWS V14.01,2013-10-31 06:45:00,
2013-10-31 02:48:00,57.9,56.5,30.07,ESE,120,0.0,0.0,95,0.00,,---,0.00,VWS V14.01,2013-10-31 06:48:00,
2013-10-31 02:50:00,57.9,56.5,30.09,ESE,121,0.0,0.0,95,0.00,,---,0.00,VWS V14.01,2013-10-31 06:50:00,
2013-10-31 02:53:00,57.9,56.5,30.07,ESE,120,0.0,0.0,95,0.00,,---,0.00,VWS V14.01,2013-10-31 06:53:00,
2013-10-31 02:55:00,57.9,56.5,30.09,ESE,120,0.0,0.0,95,0.00,,---,0.00,VWS V14.01,2013-10-31 06:55:00,
2013-10-31 02:58:00,57.9,56.8,30.07,ESE,120,0.0,0.0,96,0.00,,---,0.00,VWS V14.01,2013-10-31 06:58:00,
2013-10-31 03:00:00,58.0,56.6,30.09,ESE,120,0.0,0.0,95,0.00,,---,0.00,VWS V14.01,2013-10-31 07:00:00,
2013-10-31 03:03:00,57.9,56.8,30.07,ESE,121,0.0,0.0,96,0.00,,---,0.00,VWS V14.01,2013-10-31 07:03:00,
2013-10-31 03:05:00,58.1,56.7,30.09,ESE,121,0.0,0.0,95,0.00,,---,0.00,VWS V14.01,2013-10-31 07:05:00,
2013-10-31 03:08:00,57.9,56.5,30.07,ESE,121,0.0,0.0,95,0.00,,---,0.00,VWS V14.01,2013-10-31 07:08:00,
2013-10-31 03:10:00,58.2,56.8,30.09,ESE,121,0.0,0.0,95,0.00,,---,0.00,VWS V14.01,2013-10-31 07:10:00,
2013-10-31 03:13:00,57.8,56.7,30.07,ESE,121,0.0,0.0,96,0.00,,---,0.00,VWS V14.01,2013-10-31 07:13:00,
2013-10-31 03:15:00,58.2,56.8,30.09,ESE,120,0.0,0.0,95,0.00,,---,0.00,VWS V14.01,2013-10-31 07:15:00,
2013-10-31 03:18:00,57.7,56.3,30.07,ESE,121,0.0,0.0,95,0.00,,---,0.00,VWS V14.01,2013-10-31 07:18:00,
2013-10-31 03:20:00,58.5,57.1,30.09,ESE,120,0.0,0.0,95,0.00,,---,0.00,VWS V14.01,2013-10-31 07:20:00,
2013-10-31 03:23:00,57.7,56.6,30.06,ESE,120,0.0,0.0,96,0.00,,---,0.00,VWS V14.01,2013-10-31 07:23:00,
2013-10-31 03:25:00,58.6,56.9,30.09,ESE,121,0.0,0.0,94,0.00,,---,0.00,VWS V14.01,2013-10-31 07:25:00,
2013-10-31 03:28:00,57.7,56.6,30.06,ESE,121,0.0,0.0,96,0.00,,---,0.00,VWS V14.01,2013-10-31 07:28:00,
2013-10-31 03:30:00,58.5,56.8,30.09,ESE,121,0.0,0.0,94,0.00,,---,0.00,VWS V14.01,2013-10-31 07:30:00,
2013-10-31 03:33:00,57.7,56.6,30.05,ESE,121,0.0,0.0,96,0.00,,---,0.00,VWS V14.01,2013-10-31 07:33:00,
2013-10-31 03:35:00,58.4,56.7,30.09,ESE,120,0.0,0.0,94,0.00,,---,0.00,VWS V14.01,2013-10-31 07:35:00,
2013-10-31 03:38:00,57.7,56.6,30.05,ESE,120,0.0,0.0,96,0.00,,---,0.00,VWS V14.01,2013-10-31 07:38:00,
2013-10-31 03:40:00,58.2,56.5,30.08,ESE,121,0.0,0.0,94,0.00,,---,0.00,VWS V14.01,2013-10-31 07:40:00,
2013-10-31 03:43:00,57.7,56.6,30.05,ESE,120,0.0,0.0,96,0.00,,---,0.00,VWS V14.01,2013-10-31 07:43:00,
2013-10-31 03:45:00,58.0,56.6,30.08,ESE,121,0.0,0.0,95,0.00,,---,0.00,VWS V14.01,2013-10-31 07:45:00,
2013-10-31 03:48:00,57.8,56.7,30.05,ESE,120,0.0,1.0,96,0.00,,---,0.00,VWS V14.01,2013-10-31 07:48:00,
2013-10-31 03:50:00,57.9,56.5,30.08,ESE,120,0.0,0.0,95,0.00,,---,0.00,VWS V14.01,2013-10-31 07:50:00,
2013-10-31 03:53:00,58.0,56.9,30.04,ESE,121,0.0,0.0,96,0.00,,---,0.00,VWS V14.01,2013-10-31 07:53:00,
2013-10-31 03:55:00,57.8,56.4,30.08,ESE,121,0.0,0.0,95,0.00,,---,0.00,VWS V14.01,2013-10-31 07:55:00,
2013-10-31 03:58:00,58.1,57.0,30.04,ESE,120,0.0,0.0,96,0.00,,---,0.00,VWS V14.01,2013-10-31 07:58:00,
2013-10-31 04:00:00,58.0,56.6,30.08,ESE,121,0.0,0.0,95,0.00,,---,0.00,VWS V14.01,2013-10-31 08:00:00,
2013-10-31 04:03:00,58.0,56.9,30.04,ESE,121,0.0,0.0,96,0.00,,---,0.00,VWS V14.01,2013-10-31 08:03:00,
2013-10-31 04:05:00,58.0,56.6,30.08,ESE,120,0.0,0.0,95,0.00,,---,0.00,VWS V14.01,2013-10-31 08:05:00,
2013-10-31 04:08:00,57.9,56.8,30.05,ESE,121,0.0,0.0,96,0.00,,---,0.00,VWS V14.01,2013-10-31 08:08:00,
2013-10-31 04:10:00,58.1,56.7,30.08,ESE,121,0.0,0.0,95,0.00,,---,0.00,VWS V14.01,2013-10-31 08:10:00,
2013-10-31 04:13:00,57.9,56.8,30.05,ESE,120,0.0,0.0,96,0.00,,---,0.00,VWS V14.01,2013-10-31 08:13:00,
2013-10-31 04:15:00,58.1,56.7,30.08,ESE,121,0.0,0.0,95,0.00,,---,0.00,VWS V14.01,2013-10-31 08:15:00,
2013-10-31 04:18:00,58.0,56.9,30.05,ESE,121,0.0,0.0,96,0.00,,---,0.00,VWS V14.01,2013-10-31 08:18:00,
2013-10-31 04:20:00,58.1,56.7,30.08,ESE,120,0.0,0.0,95,0.00,,---,0.00,VWS V14.01,2013-10-31 08:20:00,
2013-10-31 04:23:00,57.9,56.8,30.05,ESE,120,0.0,0.0,96,0.00,,---,0.00,VWS V14.01,2013-10-31 08:23:00,
2013-10-31 04:25:00,57.9,56.5,30.08,ESE,121,0.0,0.0,95,0.00,,---,0.00,VWS V14.01,2013-10-31 08:25:00,
2013-10-31 04:28:00,57.9,56.8,30.05,ESE,120,0.0,0.0,96,0.00,,---,0.00,VWS V14.01,2013-10-31 08:28:00,
2013-10-31 04:30:00,57.8,56.4,30.07,ESE,121,0.0,0.0,95,0.00,,---,0.00,VWS V14.01,2013-10-31 08:30:00,
2013-10-31 04:33:00,57.9,56.8,30.04,ESE,120,0.0,0.0,96,0.00,,---,0.00,VWS V14.01,2013-10-31 08:33:00,
2013-10-31 04:35:00,57.9,56.5,30.07,ESE,121,0.0,0.0,95,0.00,,---,0.00,VWS V14.01,2013-10-31 08:35:00,
2013-10-31 04:38:00,57.8,56.7,30.04,ESE,121,0.0,0.0,96,0.00,,---,0.00,VWS V14.01,2013-10-31 08:38:00,
2013-10-31 04:40:00,57.9,56.5,30.08,ESE,120,0.0,0.0,95,0.00,,---,0.00,VWS V14.01,2013-10-31 08:40:00,
2013-10-31 04:43:00,57.8,56.7,30.04,ESE,121,0.0,1.0,96,0.00,,---,0.00,VWS V14.01,2013-10-31 08:43:00,
2013-10-31 04:45:00,57.9,56.5,30.08,ESE,120,0.0,0.0,95,0.00,,---,0.00,VWS V14.01,2013-10-31 08:45:00,
2013-10-31 04:48:00,57.8,57.0,30.03,ESE,120,0.0,0.0,97,0.00,,---,0.00,VWS V14.01,2013-10-31 08:48:00,
2013-10-31 04:50:00,57.9,56.5,30.07,ESE,121,0.0,0.0,95,0.00,,---,0.00,VWS V14.01,2013-10-31 08:50:00,
2013-10-31 04:53:00,57.8,56.7,30.03,ESE,121,0.0,0.0,96,0.00,,---,0.00,VWS V14.01,2013-10-31 08:53:00,
2013-10-31 04:55:00,57.8,56.4,30.07,ESE,121,0.0,0.0,95,0.00,,---,0.00,VWS V14.01,2013-10-31 08:55:00,
2013-10-31 04:58:00,57.8,57.0,30.04,ESE,121,0.0,0.0,97,0.00,,---,0.00,VWS V14.01,2013-10-31 08:58:00,
2013-10-31 05:00:00,57.9,56.8,30.07,ESE,121,0.0,0.0,96,0.00,,---,0.00,VWS V14.01,2013-10-31 09:00:00,
2013-10-31 05:03:00,57.8,56.7,30.03,ESE,120,0.0,0.0,96,0.00,,---,0.00,VWS V14.01,2013-10-31 09:03:00,
2013-10-31 05:05:00,57.9,56.8,30.07,ESE,121,0.0,0.0,96,0.00,,---,0.00,VWS V14.01,2013-10-31 09:05:00,
2013-10-31 05:08:00,57.8,56.7,30.03,ESE,120,0.0,0.0,96,0.00,,---,0.00,VWS V14.01,2013-10-31 09:08:00,
2013-10-31 05:10:00,57.9,56.5,30.07,ESE,120,0.0,0.0,95,0.00,,---,0.00,VWS V14.01,2013-10-31 09:10:00,
2013-10-31 05:13:00,57.8,56.7,30.03,ESE,121,0.0,0.0,96,0.00,,---,0.00,VWS V14.01,2013-10-31 09:13:00,
2013-10-31 05:15:00,57.8,56.4,30.06,ESE,121,0.0,0.0,95,0.00,,---,0.00,VWS V14.01,2013-10-31 09:15:00,
2013-10-31 05:18:00,57.8,56.7,30.04,ESE,120,0.0,0.0,96,0.00,,---,0.00,VWS V14.01,2013-10-31 09:18:00,
2013-10-31 05:20:00,57.7,56.6,30.07,ESE,120,0.0,0.0,96,0.00,,---,0.00,VWS V14.01,2013-10-31 09:20:00,
2013-10-31 05:23:00,57.8,57.0,30.04,ESE,121,0.0,0.0,97,0.00,,---,0.00,VWS V14.01,2013-10-31 09:23:00,
2013-10-31 05:25:00,57.7,56.6,30.06,ESE,121,0.0,0.0,96,0.00,,---,0.00,VWS V14.01,2013-10-31 09:25:00,
2013-10-31 05:28:00,57.7,56.6,30.04,ESE,120,0.0,0.0,96,0.00,,---,0.00,VWS V14.01,2013-10-31 09:28:00,
2013-10-31 05:30:00,57.7,56.6,30.06,ESE,121,0.0,0.0,96,0.00,,---,0.00,VWS V14.01,2013-10-31 09:30:00,
2013-10-31 05:33:00,57.6,56.8,30.04,ESE,121,0.0,0.0,97,0.00,,---,0.00,VWS V14.01,2013-10-31 09:33:00,
2013-10-31 05:35:00,57.7,56.6,30.05,ESE,120,0.0,0.0,96,0.00,,---,0.00,VWS V14.01,2013-10-31 09:35:00,
2013-10-31 05:38:00,57.6,56.8,30.04,ESE,121,0.0,0.0,97,0.00,,---,0.00,VWS V14.01,2013-10-31 09:38:00,
2013-10-31 05:40:00,57.7,56.6,30.05,ESE,120,0.0,0.0,96,0.00,,---,0.00,VWS V14.01,2013-10-31 09:40:00,
2013-10-31 05:43:00,57.5,56.7,30.04,ESE,120,0.0,0.0,97,0.00,,---,0.00,VWS V14.01,2013-10-31 09:43:00,
2013-10-31 05:45:00,57.7,56.6,30.05,ESE,120,1.0,1.0,96,0.00,,---,0.00,VWS V14.01,2013-10-31 09:45:00,
2013-10-31 05:48:00,57.5,56.7,30.04,ESE,120,0.0,0.0,97,0.00,,---,0.00,VWS V14.01,2013-10-31 09:48:00,
2013-10-31 05:50:00,57.9,56.8,30.05,ESE,120,0.0,1.0,96,0.00,,---,0.00,VWS V14.01,2013-10-31 09:50:00,
2013-10-31 05:53:00,57.5,56.7,30.04,ESE,121,0.0,0.0,97,0.00,,---,0.00,VWS V14.01,2013-10-31 09:53:00,
2013-10-31 05:55:00,58.0,56.9,30.05,ESE,120,0.0,0.0,96,0.00,,---,0.00,VWS V14.01,2013-10-31 09:55:00,
2013-10-31 05:58:00,57.5,56.7,30.04,ESE,121,0.0,0.0,97,0.00,,---,0.00,VWS V14.01,2013-10-31 09:58:00,
2013-10-31 06:00:00,58.0,56.9,30.04,ESE,120,0.0,0.0,96,0.00,,---,0.00,VWS V14.01,2013-10-31 10:00:00,
2013-10-31 06:03:00,57.5,56.7,30.04,ESE,120,0.0,0.0,97,0.00,,---,0.00,VWS V14.01,2013-10-31 10:03:00,
2013-10-31 06:05:00,57.9,56.8,30.04,ESE,121,0.0,0.0,96,0.00,,---,0.00,VWS V14.01,2013-10-31 10:05:00,
2013-10-31 06:08:00,57.5,56.7,30.05,ESE,120,0.0,0.0,97,0.00,,---,0.00,VWS V14.01,2013-10-31 10:08:00,
2013-10-31 06:10:00,57.8,56.7,30.05,ESE,121,0.0,0.0,96,0.00,,---,0.00,VWS V14.01,2013-10-31 10:10:00,
2013-10-31 06:13:00,57.5,56.7,30.04,ESE,120,0.0,1.0,97,0.00,,---,0.00,VWS V14.01,2013-10-31 10:13:00,
2013-10-31 06:15:00,57.9,56.8,30.05,ESE,121,0.0,0.0,96,0.00,,---,0.00,VWS V14.01,2013-10-31 10:15:00,
2013-10-31 06:18:00,57.5,56.7,30.04,ESE,121,0.0,0.0,97,0.00,,---,0.00,VWS V14.01,2013-10-31 10:18:00,
2013-10-31 06:20:00,57.9,56.8,30.05,ESE,121,0.0,0.0,96,0.00,,---,0.00,VWS V14.01,2013-10-31 10:20:00,
2013-10-31 06:23:00,57.6,56.8,30.04,ESE,121,0.0,0.0,97,0.00,,---,0.00,VWS V14.01,2013-10-31 10:23:00,
2013-10-31 06:25:00,57.9,56.8,30.05,ESE,120,0.0,0.0,96,0.00,,---,0.00,VWS V14.01,2013-10-31 10:25:00,
2013-10-31 06:28:00,57.6,56.8,30.05,ESE,120,0.0,0.0,97,0.00,,---,0.00,VWS V14.01,2013-10-31 10:28:00,
2013-10-31 06:30:00,58.0,56.9,30.04,ESE,120,0.0,0.0,96,0.00,,---,0.00,VWS V14.01,2013-10-31 10:30:00,
2013-10-31 06:33:00,57.6,56.8,30.05,ESE,121,0.0,0.0,97,0.00,,---,0.00,VWS V14.01,2013-10-31 10:33:00,
2013-10-31 06:35:00,57.9,56.8,30.04,ESE,120,0.0,0.0,96,0.00,,---,0.00,VWS V14.01,2013-10-31 10:35:00,
2013-10-31 06:38:00,57.6,56.8,30.04,ESE,120,0.0,0.0,97,0.00,,---,0.00,VWS V14.01,2013-10-31 10:38:00,
2013-10-31 06:40:00,57.8,56.7,30.04,ESE,120,0.0,0.0,96,0.00,,---,0.00,VWS V14.01,2013-10-31 10:40:00,
2013-10-31 06:43:00,57.6,56.8,30.04,ESE,120,0.0,0.0,97,0.00,,---,0.00,VWS V14.01,2013-10-31 10:43:00,
2013-10-31 06:45:00,57.8,56.7,30.04,ESE,121,0.0,1.0,96,0.00,,---,0.00,VWS V14.01,2013-10-31 10:45:00,
2013-10-31 06:48:00,57.7,56.9,30.04,ESE,121,0.0,0.0,97,0.00,,---,0.00,VWS V14.01,2013-10-31 10:48:00,
2013-10-31 06:50:00,57.8,57.0,30.03,ESE,120,0.0,0.0,97,0.00,,---,0.00,VWS V14.01,2013-10-31 10:50:00,
2013-10-31 06:53:00,58.1,57.0,30.04,ESE,120,0.0,0.0,96,0.00,,---,0.00,VWS V14.01,2013-10-31 10:53:00,
2013-10-31 06:55:00,57.8,56.7,30.03,ESE,121,0.0,0.0,96,0.00,,---,0.00,VWS V14.01,2013-10-31 10:55:00,
2013-10-31 06:58:00,58.4,57.0,30.04,ESE,121,0.0,0.0,95,0.00,,---,0.00,VWS V14.01,2013-10-31 10:58:00,
2013-10-31 07:00:00,57.9,56.8,30.04,ESE,120,0.0,0.0,96,0.00,,---,0.00,VWS V14.01,2013-10-31 11:00:00,
2013-10-31 07:03:00,58.4,56.7,30.04,ESE,121,0.0,0.0,94,0.00,,---,0.00,VWS V14.01,2013-10-31 11:03:00,
2013-10-31 07:05:00,57.8,56.7,30.03,ESE,121,0.0,0.0,96,0.00,,---,0.00,VWS V14.01,2013-10-31 11:05:00,
2013-10-31 07:08:00,58.4,57.0,30.03,ESE,120,0.0,0.0,95,0.00,,---,0.00,VWS V14.01,2013-10-31 11:08:00,
2013-10-31 07:10:00,57.8,56.7,30.03,ESE,120,0.0,0.0,96,0.00,,---,0.00,VWS V14.01,2013-10-31 11:10:00,
2013-10-31 07:13:00,58.4,57.0,30.03,ESE,121,0.0,0.0,95,0.00,,---,0.00,VWS V14.01,2013-10-31 11:13:00,
2013-10-31 07:15:00,57.8,56.7,30.03,ESE,120,0.0,0.0,96,0.00,,---,0.00,VWS V14.01,2013-10-31 11:15:00,
2013-10-31 07:18:00,58.4,57.0,30.03,ESE,120,0.0,0.0,95,0.00,,---,0.00,VWS V14.01,2013-10-31 11:18:00,
2013-10-31 07:20:00,57.8,56.7,30.04,ESE,121,0.0,0.0,96,0.00,,---,0.00,VWS V14.01,2013-10-31 11:20:00,
2013-10-31 07:23:00,58.2,56.8,30.03,ESE,121,0.0,1.0,95,0.00,,---,0.00,VWS V14.01,2013-10-31 11:23:00,
2013-10-31 07:25:00,57.8,57.0,30.04,ESE,120,0.0,0.0,97,0.00,,---,0.00,VWS V14.01,2013-10-31 11:25:00,
2013-10-31 07:28:00,58.2,56.8,30.03,ESE,120,0.0,0.0,95,0.00,,---,0.00,VWS V14.01,2013-10-31 11:28:00,
2013-10-31 07:30:00,57.7,56.9,30.04,ESE,120,0.0,0.0,97,0.00,,---,0.00,VWS V14.01,2013-10-31 11:30:00,
2013-10-31 07:33:00,58.1,57.0,30.03,ESE,120,0.0,0.0,96,0.00,,---,0.00,VWS V14.01,2013-10-31 11:33:00,
2013-10-31 07:35:00,57.6,56.8,30.04,ESE,121,0.0,0.0,97,0.00,,---,0.00,VWS V14.01,2013-10-31 11:35:00,
2013-10-31 07:38:00,58.0,56.9,30.02,ESE,120,0.0,0.0,96,0.00,,---,0.00,VWS V14.01,2013-10-31 11:38:00,
2013-10-31 07:40:00,57.6,56.8,30.04,ESE,120,0.0,0.0,97,0.00,,---,0.00,VWS V14.01,2013-10-31 11:40:00,
2013-10-31 07:43:00,57.8,56.7,30.02,ESE,120,0.0,0.0,96,0.00,,---,0.00,VWS V14.01,2013-10-31 11:43:00,
2013-10-31 07:45:00,57.5,56.7,30.04,ESE,120,0.0,0.0,97,0.00,,---,0.00,VWS V14.01,2013-10-31 11:45:00,
2013-10-31 07:48:00,57.8,56.7,30.02,ESE,121,0.0,0.0,96,0.00,,---,0.00,VWS V14.01,2013-10-31 11:48:00,
2013-10-31 07:50:00,57.5,56.7,30.04,ESE,120,0.0,0.0,97,0.00,,---,0.00,VWS V14.01,2013-10-31 11:50:00,
2013-10-31 07:53:00,57.9,56.8,30.02,ESE,120,0.0,0.0,96,0.00,,---,0.00,VWS V14.01,2013-10-31 11:53:00,
2013-10-31 07:55:00,57.4,56.6,30.04,ESE,121,0.0,0.0,97,0.00,,---,0.00,VWS V14.01,2013-10-31 11:55:00,
2013-10-31 07:58:00,57.9,56.8,30.02,ESE,121,0.0,0.0,96,0.00,,---,0.00,VWS V14.01,2013-10-31 11:58:00,
2013-10-31 08:00:00,57.5,56.7,30.04,ESE,120,0.0,0.0,97,0.00,,---,0.00,VWS V14.01,2013-10-31 12:00:00,
2013-10-31 08:03:00,57.9,56.8,30.01,ESE,121,0.0,0.0,96,0.00,,---,0.00,VWS V14.01,2013-10-31 12:03:00,
2013-10-31 08:05:00,57.5,56.7,30.04,ESE,120,0.0,0.0,97,0.00,,---,0.00,VWS V14.01,2013-10-31 12:05:00,
2013-10-31 08:08:00,57.8,56.7,30.01,ESE,121,0.0,0.0,96,0.00,,---,0.00,VWS V14.01,2013-10-31 12:08:00,
2013-10-31 08:10:00,57.5,56.7,30.04,ESE,121,0.0,0.0,97,0.00,,---,0.00,VWS V14.01,2013-10-31 12:10:00,
2013-10-31 08:13:00,57.9,56.8,30.00,ESE,121,0.0,0.0,96,0.00,,---,0.00,VWS V14.01,2013-10-31 12:13:00,
2013-10-31 08:15:00,57.5,56.7,30.04,ESE,120,0.0,1.0,97,0.00,,---,0.00,VWS V14.01,2013-10-31 12:15:00,
2013-10-31 08:18:00,58.0,56.9,30.00,ESE,121,0.0,0.0,96,0.00,,---,0.00,VWS V14.01,2013-10-31 12:18:00,
2013-10-31 08:20:00,57.5,56.7,30.04,ESE,121,0.0,0.0,97,0.00,,---,0.00,VWS V14.01,2013-10-31 12:20:00,
2013-10-31 08:23:00,58.1,56.7,30.00,WSW,247,0.0,1.0,95,0.00,,---,0.00,VWS V14.01,2013-10-31 12:23:00,
2013-10-31 08:25:00,57.6,56.8,30.04,ESE,120,0.0,0.0,97,0.00,,---,0.00,VWS V14.01,2013-10-31 12:25:00,
2013-10-31 08:28:00,58.3,56.9,30.00,WSW,247,0.0,0.0,95,0.00,,---,0.00,VWS V14.01,2013-10-31 12:28:00,
2013-10-31 08:30:00,57.6,56.8,30.05,ESE,121,0.0,0.0,97,0.00,,---,0.00,VWS V14.01,2013-10-31 12:30:00,
2013-10-31 08:33:00,58.3,56.9,30.00,WSW,247,0.0,0.0,95,0.00,,---,0.00,VWS V14.01,2013-10-31 12:33:00,
2013-10-31 08:35:00,57.6,56.8,30.05,ESE,120,0.0,0.0,97,0.00,,---,0.00,VWS V14.01,2013-10-31 12:35:00,
2013-10-31 08:38:00,58.5,57.1,30.00,WSW,243,0.0,1.0,95,0.00,,---,0.00,VWS V14.01,2013-10-31 12:38:00,
2013-10-31 08:40:00,57.6,56.8,30.04,ESE,120,0.0,0.0,97,0.00,,---,0.00,VWS V14.01,2013-10-31 12:40:00,
2013-10-31 08:43:00,58.7,57.0,30.00,SW,236,0.0,1.0,94,0.00,,---,0.00,VWS V14.01,2013-10-31 12:43:00,
2013-10-31 08:45:00,57.7,56.9,30.04,ESE,120,0.0,0.0,97,0.00,,---,0.00,VWS V14.01,2013-10-31 12:45:00,
2013-10-31 08:48:00,58.9,57.2,30.01,SW,236,0.0,1.0,94,0.00,,---,0.00,VWS V14.01,2013-10-31 12:48:00,
2013-10-31 08:50:00,57.8,56.7,30.04,ESE,121,0.0,0.0,96,0.00,,---,0.00,VWS V14.01,2013-10-31 12:50:00,
2013-10-31 08:53:00,59.0,57.0,30.01,SSE,159,0.0,1.0,93,0.00,,---,0.00,VWS V14.01,2013-10-31 12:53:00,
2013-10-31 08:55:00,58.2,56.8,30.04,ESE,120,0.0,0.0,95,0.00,,---,0.00,VWS V14.01,2013-10-31 12:55:00,
2013-10-31 08:58:00,59.3,57.0,30.01,West,261,1.0,2.0,92,0.00,,---,0.00,VWS V14.01,2013-10-31 12:58:00,
2013-10-31 09:00:00,58.4,57.0,30.04,ESE,121,0.0,0.0,95,0.00,,---,0.00,VWS V14.01,2013-10-31 13:00:00,
2013-10-31 09:03:00,59.9,57.3,30.01,SE,138,0.0,4.0,91,0.00,,---,0.00,VWS V14.01,2013-10-31 13:03:00,
2013-10-31 09:05:00,58.4,56.7,30.03,ESE,120,0.0,0.0,94,0.00,,---,0.00,VWS V14.01,2013-10-31 13:05:00,
2013-10-31 09:08:00,60.2,57.0,30.01,SW,221,1.0,3.0,89,0.00,,---,0.00,VWS V14.01,2013-10-31 13:08:00,
2013-10-31 09:10:00,58.4,57.0,30.03,ESE,120,0.0,0.0,95,0.00,,---,0.00,VWS V14.01,2013-10-31 13:10:00,
2013-10-31 09:13:00,60.6,57.0,30.01,South,171,2.0,4.0,88,0.00,,---,0.00,VWS V14.01,2013-10-31 13:13:00,
2013-10-31 09:15:00,58.4,57.0,30.03,ESE,121,0.0,0.0,95,0.00,,---,0.00,VWS V14.01,2013-10-31 13:15:00,
2013-10-31 09:18:00,60.9,57.0,30.01,SW,216,0.0,2.0,87,0.00,,---,0.00,VWS V14.01,2013-10-31 13:18:00,
2013-10-31 09:20:00,58.3,56.9,30.03,ESE,121,0.0,0.0,95,0.00,,---,0.00,VWS V14.01,2013-10-31 13:20:00,
2013-10-31 09:23:00,61.0,57.1,30.01,WSW,240,1.0,4.0,87,0.00,,---,0.00,VWS V14.01,2013-10-31 13:23:00,
2013-10-31 09:25:00,58.2,56.8,30.03,ESE,121,0.0,1.0,95,0.00,,---,0.00,VWS V14.01,2013-10-31 13:25:00,
2013-10-31 09:28:00,61.1,57.2,30.01,WSW,248,2.0,3.0,87,0.00,,---,0.00,VWS V14.01,2013-10-31 13:28:00,
2013-10-31 09:30:00,58.1,56.7,30.03,ESE,120,0.0,0.0,95,0.00,,---,0.00,VWS V14.01,2013-10-31 13:30:00,
2013-10-31 09:33:00,61.2,57.3,30.01,WSW,245,1.0,5.0,87,0.00,,---,0.00,VWS V14.01,2013-10-31 13:33:00,
2013-10-31 09:35:00,58.1,57.0,30.03,ESE,120,0.0,0.0,96,0.00,,---,0.00,VWS V14.01,2013-10-31 13:35:00,
2013-10-31 09:39:00,61.1,57.5,30.01,West,266,0.0,3.0,88,0.00,,---,0.00,VWS V14.01,2013-10-31 13:39:00,
2013-10-31 09:40:00,58.0,56.9,30.02,ESE,120,0.0,0.0,96,0.00,,---,0.00,VWS V14.01,2013-10-31 13:40:00,
2013-10-31 09:44:00,60.9,57.6,30.01,WSW,254,0.0,2.0,89,0.00,,---,0.00,VWS V14.01,2013-10-31 13:44:00,
2013-10-31 09:45:00,57.8,56.7,30.02,ESE,120,0.0,0.0,96,0.00,,---,0.00,VWS V14.01,2013-10-31 13:45:00,
2013-10-31 09:49:00,60.8,57.8,30.01,SW,214,0.0,1.0,90,0.00,,---,0.00,VWS V14.01,2013-10-31 13:49:00,
2013-10-31 09:50:00,57.8,56.7,30.02,ESE,120,0.0,0.0,96,0.00,,---,0.00,VWS V14.01,2013-10-31 13:50:00,
2013-10-31 09:54:00,60.7,58.1,30.00,SE,144,0.0,1.0,91,0.00,,---,0.00,VWS V14.01,2013-10-31 13:54:00,
2013-10-31 09:55:00,57.9,56.8,30.02,ESE,121,0.0,0.0,96,0.00,,---,0.00,VWS V14.01,2013-10-31 13:55:00,
2013-10-31 09:59:00,60.8,57.8,30.00,SW,228,0.0,2.0,90,0.00,,---,0.00,VWS V14.01,2013-10-31 13:59:00,
2013-10-31 10:00:00,57.9,56.8,30.02,ESE,121,0.0,0.0,96,0.00,,---,0.00,VWS V14.01,2013-10-31 14:00:00,
2013-10-31 10:04:00,60.9,58.3,30.00,SW,228,0.0,1.0,91,0.00,,---,0.00,VWS V14.01,2013-10-31 14:04:00,
2013-10-31 10:05:00,57.9,56.8,30.01,ESE,121,0.0,0.0,96,0.00,,---,0.00,VWS V14.01,2013-10-31 14:05:00,
2013-10-31 10:09:00,60.9,58.0,30.00,WSW,255,0.0,2.0,90,0.00,,---,0.00,VWS V14.01,2013-10-31 14:09:00,
2013-10-31 10:10:00,57.9,56.8,30.01,ESE,120,0.0,0.0,96,0.00,,---,0.00,VWS V14.01,2013-10-31 14:10:00,
2013-10-31 10:14:00,61.0,58.0,30.00,WSW,255,1.0,2.0,90,0.00,,---,0.00,VWS V14.01,2013-10-31 14:14:00,
2013-10-31 10:15:00,57.9,56.8,30.00,ESE,120,0.0,0.0,96,0.00,,---,0.00,VWS V14.01,2013-10-31 14:15:00,
2013-10-31 10:19:00,61.1,58.2,30.00,SSE,158,0.0,3.0,90,0.00,,---,0.00,VWS V14.01,2013-10-31 14:19:00,
2013-10-31 10:20:00,58.0,56.9,30.00,ESE,121,0.0,0.0,96,0.00,,---,0.00,VWS V14.01,2013-10-31 14:20:00,
2013-10-31 10:24:00,61.2,57.9,30.00,SW,221,2.0,5.0,89,0.00,,---,0.00,VWS V14.01,2013-10-31 14:24:00,
2013-10-31 10:25:00,58.2,56.8,30.00,WSW,247,0.0,1.0,95,0.00,,---,0.00,VWS V14.01,2013-10-31 14:25:00,
2013-10-31 10:29:00,61.4,58.1,30.00,South,190,0.0,3.0,89,0.00,,---,0.00,VWS V14.01,2013-10-31 14:29:00,
2013-10-31 10:30:00,58.3,56.9,30.00,WSW,247,0.0,0.0,95,0.00,,---,0.00,VWS V14.01,2013-10-31 14:30:00,
2013-10-31 10:34:00,61.6,58.3,29.99,SSW,205,3.0,4.0,89,0.00,,---,0.00,VWS V14.01,2013-10-31 14:34:00,
2013-10-31 10:35:00,58.3,56.9,30.00,WSW,247,0.0,0.0,95,0.00,,---,0.00,VWS V14.01,2013-10-31 14:35:00,
2013-10-31 10:39:00,61.9,58.6,29.99,SSW,212,0.0,3.0,89,0.00,,---,0.00,VWS V14.01,2013-10-31 14:39:00,
2013-10-31 10:40:00,58.5,57.1,30.00,WSW,243,0.0,1.0,95,0.00,,---,0.00,VWS V14.01,2013-10-31 14:40:00,
2013-10-31 10:44:00,62.2,58.6,29.99,SSW,208,1.0,3.0,88,0.00,,---,0.00,VWS V14.01,2013-10-31 14:44:00,
2013-10-31 10:45:00,58.7,57.0,30.00,SW,236,0.0,1.0,94,0.00,,---,0.00,VWS V14.01,2013-10-31 14:45:00,
2013-10-31 10:49:00,62.3,58.7,29.99,West,259,1.0,4.0,88,0.00,,---,0.00,VWS V14.01,2013-10-31 14:49:00,
2013-10-31 10:50:00,58.9,57.2,30.01,SW,236,0.0,1.0,94,0.00,,---,0.00,VWS V14.01,2013-10-31 14:50:00,
2013-10-31 10:54:00,62.4,58.8,29.99,SSE,160,0.0,3.0,88,0.00,,---,0.00,VWS V14.01,2013-10-31 14:54:00,
2013-10-31 10:55:00,59.0,57.0,30.01,SSE,159,0.0,1.0,93,0.00,,---,0.00,VWS V14.01,2013-10-31 14:55:00,
2013-10-31 10:59:00,62.4,58.8,29.99,SW,235,0.0,4.0,88,0.00,,---,0.00,VWS V14.01,2013-10-31 14:59:00,
2013-10-31 11:00:00,59.4,57.1,30.01,WSW,240,0.0,2.0,92,0.00,,---,0.00,VWS V14.01,2013-10-31 15:00:00,
2013-10-31 11:04:00,62.4,58.8,29.99,West,259,3.0,3.0,88,0.00,,---,0.00,VWS V14.01,2013-10-31 15:04:00,
2013-10-31 11:05:00,59.9,57.0,30.01,SE,133,0.0,4.0,90,0.00,,---,0.00,VWS V14.01,2013-10-31 15:05:00,
2013-10-31 11:09:00,62.5,58.9,29.99,ESE,120,0.0,4.0,88,0.00,,---,0.00,VWS V14.01,2013-10-31 15:09:00,
2013-10-31 11:10:00,60.3,57.0,30.01,SSW,205,0.0,3.0,89,0.00,,---,0.00,VWS V14.01,2013-10-31 15:10:00,
2013-10-31 11:14:00,62.7,59.1,29.99,SSW,200,3.0,7.0,88,0.00,,---,0.00,VWS V14.01,2013-10-31 15:14:00,
2013-10-31 11:15:00,60.6,57.0,30.01,SW,236,0.0,4.0,88,0.00,,---,0.00,VWS V14.01,2013-10-31 15:15:00,
2013-10-31 11:19:00,63.0,59.4,29.98,ESE,115,1.0,10.0,88,0.00,,---,0.00,VWS V14.01,2013-10-31 15:19:00,
2013-10-31 11:20:00,60.9,57.0,30.01,SW,234,1.0,2.0,87,0.00,,---,0.00,VWS V14.01,2013-10-31 15:20:00,
2013-10-31 11:24:00,63.4,59.8,29.98,South,189,0.0,7.0,88,0.00,,---,0.00,VWS V14.01,2013-10-31 15:24:00,
2013-10-31 11:25:00,61.0,57.1,30.01,West,272,0.0,4.0,87,0.00,,---,0.00,VWS V14.01,2013-10-31 15:25:00,
2013-10-31 11:29:00,63.7,60.1,29.97,WSW,258,3.0,9.0,88,0.00,,---,0.00,VWS V14.01,2013-10-31 15:29:00,
2013-10-31 11:30:00,61.1,57.2,30.01,WSW,248,2.0,6.0,87,0.00,,---,0.00,VWS V14.01,2013-10-31 15:30:00,
2013-10-31 11:34:00,64.0,60.4,29.97,SW,226,8.0,9.0,88,0.00,,---,0.00,VWS V14.01,2013-10-31 15:34:00,
2013-10-31 11:35:00,61.2,57.3,30.01,SW,230,0.0,5.0,87,0.00,,---,0.00,VWS V14.01,2013-10-31 15:35:00,
2013-10-31 11:39:00,64.3,60.7,29.97,WNW,290,3.0,9.0,88,0.00,,---,0.00,VWS V14.01,2013-10-31 15:39:00,
2013-10-31 11:40:00,61.0,57.4,30.01,West,266,0.0,3.0,88,0.00,,---,0.00,VWS V14.01,2013-10-31 15:40:00,
2013-10-31 11:44:00,64.4,60.8,29.97,SW,219,3.0,9.0,88,0.00,,---,0.00,VWS V14.01,2013-10-31 15:44:00,
2013-10-31 11:45:00,60.9,57.6,30.01,WSW,254,0.0,2.0,89,0.00,,---,0.00,VWS V14.01,2013-10-31 15:45:00,
2013-10-31 11:49:00,64.6,61.0,29.97,SSW,210,5.0,6.0,88,0.00,,---,0.00,VWS V14.01,2013-10-31 15:49:00,
2013-10-31 11:50:00,60.8,57.8,30.01,SW,214,0.0,1.0,90,0.00,,---,0.00,VWS V14.01,2013-10-31 15:50:00,
2013-10-31 11:54:00,64.7,61.1,29.96,NW,319,0.0,7.0,88,0.00,,---,0.00,VWS V14.01,2013-10-31 15:54:00,
2013-10-31 11:55:00,60.8,58.2,30.00,SE,144,0.0,1.0,91,0.00,,---,0.00,VWS V14.01,2013-10-31 15:55:00,
2013-10-31 11:59:00,64.9,61.3,29.97,SW,220,8.0,9.0,88,0.00,,---,0.00,VWS V14.01,2013-10-31 15:59:00,
2013-10-31 12:00:00,60.8,58.2,30.00,SW,228,0.0,2.0,91,0.00,,---,0.00,VWS V14.01,2013-10-31 16:00:00,
2013-10-31 12:04:00,65.1,61.1,29.97,SW,217,11.0,15.0,87,0.00,,---,0.00,VWS V14.01,2013-10-31 16:04:00,
2013-10-31 12:05:00,60.9,58.3,30.00,SW,228,0.0,1.0,91,0.00,,---,0.00,VWS V14.01,2013-10-31 16:05:00,
2013-10-31 12:09:00,65.4,61.4,29.97,SW,225,5.0,12.0,87,0.00,,---,0.00,VWS V14.01,2013-10-31 16:09:00,
2013-10-31 12:10:00,60.9,58.0,30.00,WSW,254,0.0,2.0,90,0.00,,---,0.00,VWS V14.01,2013-10-31 16:10:00,
2013-10-31 12:14:00,65.7,61.7,29.97,South,188,3.0,15.0,87,0.00,,---,0.00,VWS V14.01,2013-10-31 16:14:00,
2013-10-31 12:15:00,61.0,58.0,30.00,WSW,239,0.0,2.0,90,0.00,,---,0.00,VWS V14.01,2013-10-31 16:15:00,
2013-10-31 12:19:00,65.9,61.6,29.97,SSE,162,12.0,15.0,86,0.00,,---,0.00,VWS V14.01,2013-10-31 16:19:00,
2013-10-31 12:20:00,61.1,58.2,30.00,WSW,247,0.0,3.0,90,0.00,,---,0.00,VWS V14.01,2013-10-31 16:20:00,
2013-10-31 12:24:00,66.2,61.6,29.97,NW,306,4.0,12.0,85,0.00,,---,0.00,VWS V14.01,2013-10-31 16:24:00,
2013-10-31 12:25:00,61.3,58.0,30.00,SW,233,1.0,5.0,89,0.00,,---,0.00,VWS V14.01,2013-10-31 16:25:00,
2013-10-31 12:29:00,66.5,61.9,29.97,SSE,150,10.0,13.0,85,0.00,,---,0.00,VWS V14.01,2013-10-31 16:29:00,
2013-10-31 12:30:00,61.4,58.1,30.00,SSW,212,2.0,3.0,89,0.00,,---,0.00,VWS V14.01,2013-10-31 16:30:00,
2013-10-31 12:34:00,66.6,61.6,29.97,SW,214,2.0,10.0,84,0.00,,---,0.00,VWS V14.01,2013-10-31 16:34:00,
2013-10-31 12:35:00,61.6,58.0,29.99,SSW,210,2.0,4.0,88,0.00,,---,0.00,VWS V14.01,2013-10-31 16:35:00,
2013-10-31 12:39:00,66.6,62.0,29.97,SW,217,2.0,13.0,85,0.00,,---,0.00,VWS V14.01,2013-10-31 16:39:00,
2013-10-31 12:40:00,61.9,58.6,29.99,SSW,212,0.0,3.0,89,0.00,,---,0.00,VWS V14.01,2013-10-31 16:40:00,
2013-10-31 12:44:00,66.6,61.6,29.96,SW,221,6.0,8.0,84,0.00,,---,0.00,VWS V14.01,2013-10-31 16:44:00,
2013-10-31 12:45:00,62.2,58.6,29.99,SSW,203,2.0,3.0,88,0.00,,---,0.00,VWS V14.01,2013-10-31 16:45:00,
2013-10-31 12:49:00,66.7,61.7,29.96,WSW,245,5.0,6.0,84,0.00,,---,0.00,VWS V14.01,2013-10-31 16:49:00,
2013-10-31 12:50:00,62.3,58.7,29.99,SSW,210,1.0,4.0,88,0.00,,---,0.00,VWS V14.01,2013-10-31 16:50:00,
2013-10-31 12:54:00,66.8,61.8,29.96,SSE,152,5.0,12.0,84,0.00,,---,0.00,VWS V14.01,2013-10-31 16:54:00,
2013-10-31 12:55:00,62.4,58.8,29.99,SSW,193,1.0,3.0,88,0.00,,---,0.00,VWS V14.01,2013-10-31 16:55:00,
2013-10-31 12:59:00,67.0,62.0,29.95,SW,230,2.0,6.0,84,0.00,,---,0.00,VWS V14.01,2013-10-31 16:59:00,
2013-10-31 13:00:00,62.4,58.8,29.99,SW,235,1.0,4.0,88,0.00,,---,0.00,VWS V14.01,2013-10-31 17:00:00,
2013-10-31 13:04:00,67.1,62.1,29.95,SE,145,7.0,10.0,84,0.00,,---,0.00,VWS V14.01,2013-10-31 17:04:00,
2013-10-31 13:05:00,62.4,58.8,29.99,West,269,1.0,3.0,88,0.00,,---,0.00,VWS V14.01,2013-10-31 17:05:00,
2013-10-31 13:09:00,67.3,62.0,29.94,SSE,153,6.0,10.0,83,0.00,,---,0.00,VWS V14.01,2013-10-31 17:09:00,
2013-10-31 13:10:00,62.5,58.9,29.99,South,170,0.0,4.0,88,0.00,,---,0.00,VWS V14.01,2013-10-31 17:10:00,
2013-10-31 13:14:00,67.5,62.2,29.93,SSW,196,3.0,11.0,83,0.00,,---,0.00,VWS V14.01,2013-10-31 17:14:00,
2013-10-31 13:15:00,62.8,59.2,29.99,ENE,62,1.0,7.0,88,0.00,,---,0.00,VWS V14.01,2013-10-31 17:15:00,
2013-10-31 13:19:00,67.8,62.5,29.92,ESE,111,3.0,9.0,83,0.00,,---,0.00,VWS V14.01,2013-10-31 17:19:00,
2013-10-31 13:20:00,63.1,59.5,29.98,SSE,167,0.0,10.0,88,0.00,,---,0.00,VWS V14.01,2013-10-31 17:20:00,
2013-10-31 13:24:00,68.0,62.3,29.92,ESE,120,2.0,9.0,82,0.00,,---,0.00,VWS V14.01,2013-10-31 17:24:00,
2013-10-31 13:25:00,63.4,59.8,29.98,SSW,208,4.0,7.0,88,0.00,,---,0.00,VWS V14.01,2013-10-31 17:25:00,
2013-10-31 13:29:00,68.4,62.7,29.92,SSW,196,12.0,12.0,82,0.00,,---,0.00,VWS V14.01,2013-10-31 17:29:00,
2013-10-31 13:30:00,63.8,60.2,29.97,SW,228,2.0,9.0,88,0.00,,---,0.00,VWS V14.01,2013-10-31 17:30:00,
2013-10-31 13:34:00,68.7,62.6,29.92,SW,219,5.0,14.0,81,0.00,,---,0.00,VWS V14.01,2013-10-31 17:34:00,
2013-10-31 13:35:00,64.1,60.5,29.97,SSE,161,3.0,9.0,88,0.00,,---,0.00,VWS V14.01,2013-10-31 17:35:00,
2013-10-31 13:39:00,68.9,62.8,29.91,SSE,167,5.0,9.0,81,0.00,,---,0.00,VWS V14.01,2013-10-31 17:39:00,
2013-10-31 13:40:00,64.3,60.7,29.97,WNW,288,4.0,9.0,88,0.00,,---,0.00,VWS V14.01,2013-10-31 17:40:00,
2013-10-31 13:44:00,69.0,62.6,29.90,SW,226,5.0,12.0,80,0.00,,---,0.00,VWS V14.01,2013-10-31 17:44:00,
2013-10-31 13:45:00,64.4,60.5,29.97,SW,236,3.0,9.0,87,0.00,,---,0.00,VWS V14.01,2013-10-31 17:45:00,
2013-10-31 13:49:00,69.1,62.7,29.90,West,262,4.0,9.0,80,0.00,,---,0.00,VWS V14.01,2013-10-31 17:49:00,
2013-10-31 13:50:00,64.5,60.5,29.97,WSW,255,3.0,6.0,87,0.00,,---,0.00,VWS V14.01,2013-10-31 17:50:00,
2013-10-31 13:54:00,69.2,62.8,29.90,SSW,200,9.0,13.0,80,0.00,,---,0.00,VWS V14.01,2013-10-31 17:54:00,
2013-10-31 13:55:00,64.7,61.1,29.96,South,172,0.0,7.0,88,0.00,,---,0.00,VWS V14.01,2013-10-31 17:55:00,
2013-10-31 13:59:00,69.0,62.6,29.90,SW,231,6.0,13.0,80,0.00,,---,0.00,VWS V14.01,2013-10-31 17:59:00,
2013-10-31 14:00:00,64.9,61.3,29.97,SSE,168,3.0,9.0,88,0.00,,---,0.00,VWS V14.01,2013-10-31 18:00:00,
2013-10-31 14:04:00,69.0,62.6,29.90,SE,134,2.0,13.0,80,0.00,,---,0.00,VWS V14.01,2013-10-31 18:04:00,
2013-10-31 14:05:00,65.1,61.1,29.97,SW,231,9.0,15.0,87,0.00,,---,0.00,VWS V14.01,2013-10-31 18:05:00,
2013-10-31 14:09:00,69.0,62.9,29.89,SSW,201,3.0,9.0,81,0.00,,---,0.00,VWS V14.01,2013-10-31 18:09:00,
2013-10-31 14:10:00,65.4,61.4,29.97,SW,230,4.0,12.0,87,0.00,,---,0.00,VWS V14.01,2013-10-31 18:10:00,
2013-10-31 14:14:00,69.0,62.6,29.88,South,172,6.0,11.0,80,0.00,,---,0.00,VWS V14.01,2013-10-31 18:14:00,
2013-10-31 14:15:00,65.7,61.4,29.97,WSW,248,6.0,15.0,86,0.00,,---,0.00,VWS V14.01,2013-10-31 18:15:00,
2013-10-31 14:19:00,69.0,62.6,29.88,West,269,3.0,9.0,80,0.00,,---,0.00,VWS V14.01,2013-10-31 18:19:00,
2013-10-31 14:20:00,66.0,61.4,29.97,South,169,10.0,15.0,85,0.00,,---,0.00,VWS V14.01,2013-10-31 18:20:00,
2013-10-31 14:24:00,69.2,63.1,29.88,SSW,197,2.0,9.0,81,0.00,,---,0.00,VWS V14.01,2013-10-31 18:24:00,
2013-10-31 14:25:00,66.2,61.6,29.97,SW,233,5.0,12.0,85,0.00,,---,0.00,VWS V14.01,2013-10-31 18:25:00,
2013-10-31 14:29:00,69.5,63.1,29.88,WNW,286,3.0,8.0,80,0.00,,---,0.00,VWS V14.01,2013-10-31 18:29:00,
2013-10-31 14:30:00,66.5,61.9,29.97,West,268,9.0,13.0,85,0.00,,---,0.00,VWS V14.01,2013-10-31 18:30:00,
2013-10-31 14:34:00,69.5,63.1,29.87,SSW,210,6.0,8.0,80,0.00,,---,0.00,VWS V14.01,2013-10-31 18:34:00,
2013-10-31 14:35:00,66.6,61.6,29.97,South,174,3.0,10.0,84,0.00,,---,0.00,VWS V14.01,2013-10-31 18:35:00,
2013-10-31 14:39:00,69.4,63.0,29.88,West,264,4.0,13.0,80,0.00,,---,0.00,VWS V14.01,2013-10-31 18:39:00,
2013-10-31 14:40:00,66.6,62.0,29.97,SSE,168,0.0,13.0,85,0.00,,---,0.00,VWS V14.01,2013-10-31 18:40:00,
2013-10-31 14:44:00,69.3,62.9,29.87,SE,139,2.0,11.0,80,0.00,,---,0.00,VWS V14.01,2013-10-31 18:44:00,
2013-10-31 14:45:00,66.7,61.7,29.96,South,186,4.0,8.0,84,0.00,,---,0.00,VWS V14.01,2013-10-31 18:45:00,
2013-10-31 14:49:00,69.2,62.8,29.88,SW,221,6.0,12.0,80,0.00,,---,0.00,VWS V14.01,2013-10-31 18:49:00,
2013-10-31 14:50:00,66.7,61.7,29.96,SSE,158,5.0,6.0,84,0.00,,---,0.00,VWS V14.01,2013-10-31 18:50:00,
2013-10-31 14:54:00,69.1,62.7,29.87,South,185,4.0,12.0,80,0.00,,---,0.00,VWS V14.01,2013-10-31 18:54:00,
2013-10-31 14:55:00,66.8,61.8,29.96,SSW,199,6.0,12.0,84,0.00,,---,0.00,VWS V14.01,2013-10-31 18:55:00,
2013-10-31 14:59:00,69.0,62.9,29.86,SW,217,4.0,7.0,81,0.00,,---,0.00,VWS V14.01,2013-10-31 18:59:00,
2013-10-31 15:00:00,67.0,62.0,29.95,West,269,1.0,6.0,84,0.00,,---,0.00,VWS V14.01,2013-10-31 19:00:00,
2013-10-31 15:04:00,69.0,62.9,29.86,SW,219,3.0,11.0,81,0.00,,---,0.00,VWS V14.01,2013-10-31 19:04:00,
2013-10-31 15:05:00,67.1,62.1,29.95,WSW,245,10.0,10.0,84,0.00,,---,0.00,VWS V14.01,2013-10-31 19:05:00,
2013-10-31 15:09:00,69.0,62.9,29.86,WSW,240,4.0,8.0,81,0.00,,---,0.00,VWS V14.01,2013-10-31 19:09:00,
2013-10-31 15:10:00,67.3,62.0,29.94,South,172,4.0,10.0,83,0.00,,---,0.00,VWS V14.01,2013-10-31 19:10:00,
2013-10-31 15:14:00,69.1,62.7,29.86,South,169,4.0,11.0,80,0.00,,---,0.00,VWS V14.01,2013-10-31 19:14:00,
2013-10-31 15:15:00,67.5,62.2,29.93,South,191,3.0,11.0,83,0.00,,---,0.00,VWS V14.01,2013-10-31 19:15:00,
2013-10-31 15:19:00,69.2,62.8,29.85,SW,233,4.0,11.0,80,0.00,,---,0.00,VWS V14.01,2013-10-31 19:19:00,
2013-10-31 15:20:00,67.8,62.5,29.92,SSE,151,3.0,9.0,83,0.00,,---,0.00,VWS V14.01,2013-10-31 19:20:00,
2013-10-31 15:24:00,69.4,63.0,29.85,WSW,248,6.0,9.0,80,0.00,,---,0.00,VWS V14.01,2013-10-31 19:24:00,
2013-10-31 15:25:00,68.1,62.4,29.92,East,91,0.0,9.0,82,0.00,,---,0.00,VWS V14.01,2013-10-31 19:25:00,
2013-10-31 15:29:00,69.7,63.3,29.84,SE,138,7.0,10.0,80,0.00,,---,0.00,VWS V14.01,2013-10-31 19:29:00,
2013-10-31 15:30:00,68.4,62.3,29.92,SSW,205,14.0,18.0,81,0.00,,---,0.00,VWS V14.01,2013-10-31 19:30:00,
2013-10-31 15:34:00,70.0,63.2,29.83,South,188,6.0,6.0,79,0.00,,---,0.00,VWS V14.01,2013-10-31 19:34:00,
2013-10-31 15:35:00,68.7,62.6,29.92,SW,226,8.0,14.0,81,0.00,,---,0.00,VWS V14.01,2013-10-31 19:35:00,
2013-10-31 15:39:00,70.3,63.1,29.83,ESE,108,4.0,4.0,78,0.00,,---,0.00,VWS V14.01,2013-10-31 19:39:00,
2013-10-31 15:40:00,68.9,62.8,29.91,SE,130,7.0,9.0,81,0.00,,---,0.00,VWS V14.01,2013-10-31 19:40:00,
2013-10-31 15:44:00,70.6,63.0,29.83,SSW,209,6.0,8.0,77,0.00,,---,0.00,VWS V14.01,2013-10-31 19:44:00,
2013-10-31 15:45:00,69.0,62.6,29.90,WSW,240,5.0,12.0,80,0.00,,---,0.00,VWS V14.01,2013-10-31 19:45:00,
2013-10-31 15:49:00,70.7,63.1,29.83,SW,234,6.0,7.0,77,0.00,,---,0.00,VWS V14.01,2013-10-31 19:49:00,
2013-10-31 15:50:00,69.1,62.7,29.90,SW,227,3.0,9.0,80,0.00,,---,0.00,VWS V14.01,2013-10-31 19:50:00,
2013-10-31 15:53:00,70.8,63.2,29.83,SSE,161,2.0,10.0,77,0.00,,---,0.00,VWS V14.01,2013-10-31 19:53:00,
2013-10-31 15:55:00,69.2,62.8,29.90,SSW,211,8.0,13.0,80,0.00,,---,0.00,VWS V14.01,2013-10-31 19:55:00,
2013-10-31 15:58:00,70.7,63.1,29.83,South,182,5.0,12.0,77,0.00,,---,0.00,VWS V14.01,2013-10-31 19:58:00,
2013-10-31 16:00:00,69.0,62.6,29.90,SE,129,5.0,13.0,80,0.00,,---,0.00,VWS V14.01,2013-10-31 20:00:00,
2013-10-31 16:03:00,70.8,63.2,29.83,SSW,196,6.0,11.0,77,0.00,,---,0.00,VWS V14.01,2013-10-31 20:03:00,
2013-10-31 16:05:00,69.0,62.6,29.90,SE,134,2.0,13.0,80,0.00,,---,0.00,VWS V14.01,2013-10-31 20:05:00,
2013-10-31 16:08:00,70.8,63.2,29.82,South,174,5.0,8.0,77,0.00,,---,0.00,VWS V14.01,2013-10-31 20:08:00,
2013-10-31 16:10:00,69.0,62.9,29.89,SSW,201,3.0,9.0,81,0.00,,---,0.00,VWS V14.01,2013-10-31 20:10:00,
2013-10-31 16:13:00,70.9,63.3,29.82,SSE,159,3.0,15.0,77,0.00,,---,0.00,VWS V14.01,2013-10-31 20:13:00,
2013-10-31 16:15:00,69.0,62.6,29.88,South,172,6.0,11.0,80,0.00,,---,0.00,VWS V14.01,2013-10-31 20:15:00,
2013-10-31 16:18:00,70.9,63.3,29.82,South,186,2.0,10.0,77,0.00,,---,0.00,VWS V14.01,2013-10-31 20:18:00,
2013-10-31 16:20:00,69.0,62.6,29.88,West,269,3.0,9.0,80,0.00,,---,0.00,VWS V14.01,2013-10-31 20:20:00,
2013-10-31 16:23:00,71.0,63.4,29.81,ENE,69,1.0,8.0,77,0.00,,---,0.00,VWS V14.01,2013-10-31 20:23:00,
2013-10-31 16:25:00,69.2,63.1,29.88,SSW,197,2.0,9.0,81,0.00,,---,0.00,VWS V14.01,2013-10-31 20:25:00,
2013-10-31 16:28:00,71.0,63.4,29.80,SSE,152,4.0,6.0,77,0.00,,---,0.00,VWS V14.01,2013-10-31 20:28:00,
2013-10-31 16:30:00,69.5,63.1,29.88,WNW,286,3.0,8.0,80,0.00,,---,0.00,VWS V14.01,2013-10-31 20:30:00,
2013-10-31 16:33:00,71.0,63.4,29.80,ESE,119,5.0,13.0,77,0.00,,---,0.00,VWS V14.01,2013-10-31 20:33:00,
2013-10-31 16:35:00,69.5,63.1,29.87,SSW,210,6.0,8.0,80,0.00,,---,0.00,VWS V14.01,2013-10-31 20:35:00,
2013-10-31 16:38:00,71.2,63.6,29.80,SW,217,2.0,9.0,77,0.00,,---,0.00,VWS V14.01,2013-10-31 20:38:00,
2013-10-31 16:40:00,69.4,63.0,29.88,West,264,4.0,13.0,80,0.00,,---,0.00,VWS V14.01,2013-10-31 20:40:00,
2013-10-31 16:43:00,71.2,63.6,29.80,SSE,150,2.0,11.0,77,0.00,,---,0.00,VWS V14.01,2013-10-31 20:43:00,
2013-10-31 16:45:00,69.3,62.9,29.87,SE,139,2.0,11.0,80,0.00,,---,0.00,VWS V14.01,2013-10-31 20:45:00,
2013-10-31 16:48:00,71.3,63.7,29.80,SW,227,6.0,6.0,77,0.00,,---,0.00,VWS V14.01,2013-10-31 20:48:00,
2013-10-31 16:50:00,69.2,62.8,29.88,SW,221,6.0,12.0,80,0.00,,---,0.00,VWS V14.01,2013-10-31 20:50:00,
2013-10-31 16:53:00,71.3,63.7,29.80,East,101,5.0,9.0,77,0.00,,---,0.00,VWS V14.01,2013-10-31 20:53:00,
2013-10-31 16:55:00,69.1,62.7,29.87,South,185,4.0,12.0,80,0.00,,---,0.00,VWS V14.01,2013-10-31 20:55:00,
2013-10-31 16:58:00,71.3,63.7,29.80,SE,136,2.0,9.0,77,0.00,,---,0.00,VWS V14.01,2013-10-31 20:58:00,
2013-10-31 17:00:00,69.0,62.9,29.86,SW,217,4.0,7.0,81,0.00,,---,0.00,VWS V14.01,2013-10-31 21:00:00,
2013-10-31 17:03:00,71.3,63.7,29.81,SSE,150,4.0,8.0,77,0.00,,---,0.00,VWS V14.01,2013-10-31 21:03:00,
2013-10-31 17:05:00,69.0,62.9,29.86,SW,219,3.0,11.0,81,0.00,,---,0.00,VWS V14.01,2013-10-31 21:05:00,
2013-10-31 17:08:00,71.4,63.8,29.80,SSW,207,1.0,13.0,77,0.00,,---,0.00,VWS V14.01,2013-10-31 21:08:00,
2013-10-31 17:10:00,69.0,62.9,29.86,WSW,240,4.0,8.0,81,0.00,,---,0.00,VWS V14.01,2013-10-31 21:10:00,
2013-10-31 17:13:00,71.3,64.1,29.80,SE,141,0.0,8.0,78,0.00,,---,0.00,VWS V14.01,2013-10-31 21:13:00,
2013-10-31 17:15:00,69.1,62.7,29.86,South,169,4.0,11.0,80,0.00,,---,0.00,VWS V14.01,2013-10-31 21:15:00,
2013-10-31 17:18:00,71.2,63.6,29.79,SW,226,1.0,8.0,77,0.00,,---,0.00,VWS V14.01,2013-10-31 21:18:00,
2013-10-31 17:20:00,69.2,62.8,29.85,SW,233,4.0,11.0,80,0.00,,---,0.00,VWS V14.01,2013-10-31 21:20:00,
2013-10-31 17:23:00,71.3,63.7,29.80,SW,221,7.0,12.0,77,0.00,,---,0.00,VWS V14.01,2013-10-31 21:23:00,
2013-10-31 17:25:00,69.4,63.0,29.85,WSW,248,6.0,9.0,80,0.00,,---,0.00,VWS V14.01,2013-10-31 21:25:00,
2013-10-31 17:28:00,71.3,63.7,29.80,SW,232,13.0,13.0,77,0.00,,---,0.00,VWS V14.01,2013-10-31 21:28:00,
2013-10-31 17:30:00,69.7,63.3,29.84,SE,138,7.0,10.0,80,0.00,,---,0.00,VWS V14.01,2013-10-31 21:30:00,
2013-10-31 17:33:00,71.3,64.1,29.80,WNW,295,4.0,16.0,78,0.00,,---,0.00,VWS V14.01,2013-10-31 21:33:00,
2013-10-31 17:35:00,70.0,63.2,29.83,SE,130,3.0,10.0,79,0.00,,---,0.00,VWS V14.01,2013-10-31 21:35:00,
2013-10-31 17:38:00,71.1,63.9,29.79,SW,214,5.0,18.0,78,0.00,,---,0.00,VWS V14.01,2013-10-31 21:38:00,
2013-10-31 17:40:00,70.3,63.1,29.83,SE,145,4.0,10.0,78,0.00,,---,0.00,VWS V14.01,2013-10-31 21:40:00,
2013-10-31 17:43:00,70.9,64.1,29.79,SW,236,12.0,12.0,79,0.00,,---,0.00,VWS V14.01,2013-10-31 21:43:00,
2013-10-31 17:45:00,70.6,63.0,29.83,West,259,8.0,12.0,77,0.00,,---,0.00,VWS V14.01,2013-10-31 21:45:00,
2013-10-31 17:48:00,70.7,64.2,29.79,SW,221,6.0,12.0,80,0.00,,---,0.00,VWS V14.01,2013-10-31 21:48:00,
2013-10-31 17:50:00,70.7,63.1,29.83,SSW,193,7.0,13.0,77,0.00,,---,0.00,VWS V14.01,2013-10-31 21:50:00,
2013-10-31 17:53:00,70.5,64.0,29.78,SW,225,0.0,9.0,80,0.00,,---,0.00,VWS V14.01,2013-10-31 21:53:00,
2013-10-31 17:55:00,70.8,63.2,29.83,SSW,197,5.0,10.0,77,0.00,,---,0.00,VWS V14.01,2013-10-31 21:55:00,
2013-10-31 17:58:00,70.2,64.1,29.78,SW,230,2.0,7.0,81,0.00,,---,0.00,VWS V14.01,2013-10-31 21:58:00,
2013-10-31 18:00:00,70.8,63.2,29.83,WSW,245,3.0,12.0,77,0.00,,---,0.00,VWS V14.01,2013-10-31 22:00:00,
2013-10-31 18:03:00,70.0,63.9,29.78,WSW,238,2.0,7.0,81,0.00,,---,0.00,VWS V14.01,2013-10-31 22:03:00,
2013-10-31 18:05:00,70.8,63.2,29.82,SW,233,7.0,11.0,77,0.00,,---,0.00,VWS V14.01,2013-10-31 22:05:00,
2013-10-31 18:08:00,69.9,64.2,29.78,South,188,5.0,7.0,82,0.00,,---,0.00,VWS V14.01,2013-10-31 22:08:00,
2013-10-31 18:10:00,70.9,63.3,29.82,West,264,13.0,16.0,77,0.00,,---,0.00,VWS V14.01,2013-10-31 22:10:00,
2013-10-31 18:13:00,69.8,64.1,29.78,SSE,154,3.0,5.0,82,0.00,,---,0.00,VWS V14.01,2013-10-31 22:13:00,
2013-10-31 18:15:00,70.9,63.3,29.82,SSE,158,1.0,15.0,77,0.00,,---,0.00,VWS V14.01,2013-10-31 22:15:00,
2013-10-31 18:18:00,69.7,64.0,29.78,WSW,248,2.0,6.0,82,0.00,,---,0.00,VWS V14.01,2013-10-31 22:18:00,
2013-10-31 18:20:00,71.0,63.4,29.82,SE,145,1.0,10.0,77,0.00,,---,0.00,VWS V14.01,2013-10-31 22:20:00,
2013-10-31 18:23:00,69.7,64.0,29.78,SSW,213,1.0,5.0,82,0.00,,---,0.00,VWS V14.01,2013-10-31 22:23:00,
2013-10-31 18:25:00,71.0,63.4,29.81,SE,131,2.0,8.0,77,0.00,,---,0.00,VWS V14.01,2013-10-31 22:25:00,
2013-10-31 18:28:00,69.8,64.1,29.78,SW,221,1.0,5.0,82,0.00,,---,0.00,VWS V14.01,2013-10-31 22:28:00,
2013-10-31 18:30:00,71.0,63.4,29.80,East,95,3.0,12.0,77,0.00,,---,0.00,VWS V14.01,2013-10-31 22:30:00,
2013-10-31 18:33:00,70.0,64.3,29.78,East,91,0.0,9.0,82,0.00,,---,0.00,VWS V14.01,2013-10-31 22:33:00,
2013-10-31 18:35:00,71.1,63.5,29.80,SW,214,6.0,13.0,77,0.00,,---,0.00,VWS V14.01,2013-10-31 22:35:00,
2013-10-31 18:38:00,70.0,63.9,29.78,WSW,257,4.0,4.0,81,0.00,,---,0.00,VWS V14.01,2013-10-31 22:38:00,
2013-10-31 18:40:00,71.2,63.6,29.80,SSE,165,1.0,9.0,77,0.00,,---,0.00,VWS V14.01,2013-10-31 22:40:00,
2013-10-31 18:43:00,70.1,64.0,29.78,SW,225,1.0,4.0,81,0.00,,---,0.00,VWS V14.01,2013-10-31 22:43:00,
2013-10-31 18:45:00,71.3,63.7,29.80,SSE,154,3.0,11.0,77,0.00,,---,0.00,VWS V14.01,2013-10-31 22:45:00,
2013-10-31 18:48:00,70.2,64.1,29.77,West,271,2.0,8.0,81,0.00,,---,0.00,VWS V14.01,2013-10-31 22:48:00,
2013-10-31 18:50:00,71.3,63.7,29.80,SSE,150,4.0,7.0,77,0.00,,---,0.00,VWS V14.01,2013-10-31 22:50:00,
2013-10-31 18:53:00,70.3,64.2,29.77,WSW,250,3.0,11.0,81,0.00,,---,0.00,VWS V14.01,2013-10-31 22:53:00,
2013-10-31 18:55:00,71.3,63.7,29.80,WSW,240,8.0,9.0,77,0.00,,---,0.00,VWS V14.01,2013-10-31 22:55:00,
2013-10-31 18:58:00,70.3,63.8,29.77,SSW,202,8.0,10.0,80,0.00,,---,0.00,VWS V14.01,2013-10-31 22:58:00,
2013-10-31 19:00:00,71.3,63.7,29.81,SSW,199,6.0,9.0,77,0.00,,---,0.00,VWS V14.01,2013-10-31 23:00:00,
2013-10-31 19:04:00,70.2,64.1,29.77,SSW,200,3.0,8.0,81,0.00,,---,0.00,VWS V14.01,2013-10-31 23:04:00,
2013-10-31 19:05:00,71.3,63.7,29.81,SSE,160,5.0,9.0,77,0.00,,---,0.00,VWS V14.01,2013-10-31 23:05:00,
2013-10-31 19:09:00,70.2,64.1,29.77,SSW,207,4.0,11.0,81,0.00,,---,0.00,VWS V14.01,2013-10-31 23:09:00,
2013-10-31 19:10:00,71.3,63.7,29.80,WSW,253,2.0,13.0,77,0.00,,---,0.00,VWS V14.01,2013-10-31 23:10:00,
2013-10-31 19:14:00,70.2,64.1,29.77,WSW,245,1.0,13.0,81,0.00,,---,0.00,VWS V14.01,2013-10-31 23:14:00,
2013-10-31 19:15:00,71.3,64.1,29.80,SE,142,1.0,8.0,78,0.00,,---,0.00,VWS V14.01,2013-10-31 23:15:00,
2013-10-31 19:19:00,70.1,64.0,29.77,SSE,155,2.0,10.0,81,0.00,,---,0.00,VWS V14.01,2013-10-31 23:19:00,
2013-10-31 19:20:00,71.2,63.6,29.80,South,175,4.0,8.0,77,0.00,,---,0.00,VWS V14.01,2013-10-31 23:20:00,
2013-10-31 19:24:00,70.2,64.1,29.77,South,179,15.0,15.0,81,0.00,,---,0.00,VWS V14.01,2013-10-31 23:24:00,
2013-10-31 19:25:00,71.3,63.7,29.80,SW,228,4.0,15.0,77,0.00,,---,0.00,VWS V14.01,2013-10-31 23:25:00,
2013-10-31 19:29:00,70.1,64.0,29.77,SE,139,3.0,12.0,81,0.00,,---,0.00,VWS V14.01,2013-10-31 23:29:00,
2013-10-31 19:30:00,71.3,63.7,29.79,SE,141,13.0,17.0,77,0.00,,---,0.00,VWS V14.01,2013-10-31 23:30:00,
2013-10-31 19:34:00,69.9,64.2,29.78,SSE,150,12.0,12.0,82,0.00,,---,0.00,VWS V14.01,2013-10-31 23:34:00,
2013-10-31 19:35:00,71.2,64.0,29.79,WSW,254,3.0,16.0,78,0.00,,---,0.00,VWS V14.01,2013-10-31 23:35:00,
2013-10-31 19:39:00,69.8,64.4,29.77,SSE,168,8.0,13.0,83,0.00,,---,0.00,VWS V14.01,2013-10-31 23:39:00,
2013-10-31 19:40:00,71.1,63.9,29.79,South,179,8.0,18.0,78,0.00,,---,0.00,VWS V14.01,2013-10-31 23:40:00,
2013-10-31 19:44:00,69.6,64.2,29.77,SW,232,4.0,7.0,83,0.00,,---,0.00,VWS V14.01,2013-10-31 23:44:00,
2013-10-31 19:45:00,70.9,64.1,29.79,South,171,8.0,12.0,79,0.00,,---,0.00,VWS V14.01,2013-10-31 23:45:00,
2013-10-31 19:49:00,69.4,64.0,29.77,WSW,245,7.0,16.0,83,0.00,,---,0.00,VWS V14.01,2013-10-31 23:49:00,
2013-10-31 19:50:00,70.6,64.1,29.79,SW,230,4.0,12.0,80,0.00,,---,0.00,VWS V14.01,2013-10-31 23:50:00,
2013-10-31 19:54:00,69.3,64.3,29.77,South,187,5.0,10.0,84,0.00,,---,0.00,VWS V14.01,2013-10-31 23:54:00,
2013-10-31 19:55:00,70.4,64.3,29.78,South,176,1.0,9.0,81,0.00,,---,0.00,VWS V14.01,2013-10-31 23:55:00,
2013-10-31 19:59:00,69.0,64.3,29.77,South,169,9.0,12.0,85,0.00,,---,0.00,VWS V14.01,2013-10-31 23:59:00,
2013-10-31 20:00:00,70.2,64.1,29.78,SW,224,4.0,7.0,81,0.00,,---,0.00,VWS V14.01,2013-11-01 00:00:00,
2013-10-31 20:04:00,68.6,64.2,29.77,SSW,205,6.0,9.0,86,0.01,,---,0.01,VWS V14.01,2013-11-01 00:04:00,
2013-10-31 20:05:00,70.0,64.3,29.78,SSW,203,3.0,7.0,82,0.00,,---,0.00,VWS V14.01,2013-11-01 00:05:00,
2013-10-31 20:09:00,68.4,64.4,29.77,SSE,157,4.0,12.0,87,0.01,,---,0.01,VWS V14.01,2013-11-01 00:09:00,
2013-10-31 20:10:00,69.9,64.2,29.78,SW,219,5.0,8.0,82,0.00,,---,0.00,VWS V14.01,2013-11-01 00:10:00,
2013-10-31 20:14:00,68.1,64.4,29.77,SW,231,1.0,9.0,88,0.01,,---,0.01,VWS V14.01,2013-11-01 00:14:00,
2013-10-31 20:15:00,69.8,64.1,29.78,South,169,3.0,5.0,82,0.00,,---,0.00,VWS V14.01,2013-11-01 00:15:00,
2013-10-31 20:19:00,67.9,64.2,29.77,South,172,6.0,9.0,88,0.01,,---,0.01,VWS V14.01,2013-11-01 00:19:00,
2013-10-31 20:20:00,69.7,64.0,29.78,SW,228,1.0,6.0,82,0.00,,---,0.00,VWS V14.01,2013-11-01 00:20:00,
2013-10-31 20:24:00,67.8,64.1,29.77,WSW,255,5.0,9.0,88,0.01,,---,0.01,VWS V14.01,2013-11-01 00:24:00,
2013-10-31 20:25:00,69.7,64.0,29.78,SW,224,3.0,7.0,82,0.00,,---,0.00,VWS V14.01,2013-11-01 00:25:00,
2013-10-31 20:29:00,67.7,64.3,29.76,SSE,149,3.0,9.0,89,0.01,,---,0.01,VWS V14.01,2013-11-01 00:29:00,
2013-10-31 20:30:00,69.8,64.1,29.78,SW,215,4.0,8.0,82,0.00,,---,0.00,VWS V14.01,2013-11-01 00:30:00,
2013-10-31 20:34:00,67.7,64.3,29.76,SW,220,4.0,11.0,89,0.01,,---,0.01,VWS V14.01,2013-11-01 00:34:00,
2013-10-31 20:35:00,70.0,63.9,29.78,East,93,4.0,9.0,81,0.00,,---,0.00,VWS V14.01,2013-11-01 00:35:00,
2013-10-31 20:39:00,67.6,64.2,29.76,ESE,110,5.0,6.0,89,0.01,,---,0.01,VWS V14.01,2013-11-01 00:39:00,
2013-10-31 20:40:00,70.0,63.9,29.78,SW,216,4.0,5.0,81,0.00,,---,0.00,VWS V14.01,2013-11-01 00:40:00,
2013-10-31 20:44:00,67.6,64.2,29.76,SSW,202,4.0,10.0,89,0.01,,---,0.01,VWS V14.01,2013-11-01 00:44:00,
2013-10-31 20:45:00,70.1,64.0,29.78,SSW,200,1.0,5.0,81,0.00,,---,0.00,VWS V14.01,2013-11-01 00:45:00,
2013-10-31 20:49:00,67.5,64.2,29.76,SW,227,0.0,12.0,89,0.01,,---,0.01,VWS V14.01,2013-11-01 00:49:00,
2013-10-31 20:50:00,70.2,64.1,29.77,SSW,212,9.0,13.0,81,0.00,,---,0.00,VWS V14.01,2013-11-01 00:50:00,
2013-10-31 20:54:00,67.3,64.0,29.75,South,175,7.0,8.0,89,0.01,,---,0.01,VWS V14.01,2013-11-01 00:54:00,
2013-10-31 20:55:00,70.3,63.8,29.77,NW,307,6.0,11.0,80,0.00,,---,0.00,VWS V14.01,2013-11-01 00:55:00,
2013-10-31 20:59:00,67.2,64.2,29.75,SE,136,3.0,11.0,90,0.01,,---,0.01,VWS V14.01,2013-11-01 00:59:00,
2013-10-31 21:00:00,70.3,63.8,29.77,SSW,212,3.0,10.0,80,0.00,,---,0.00,VWS V14.01,2013-11-01 01:00:00,
2013-10-31 21:04:00,67.0,64.0,29.75,WSW,243,3.0,12.0,90,0.02,,---,0.02,VWS V14.01,2013-11-01 01:04:00,
2013-10-31 21:05:00,70.2,63.8,29.77,ESE,116,1.0,8.0,80,0.00,,---,0.00,VWS V14.01,2013-11-01 01:05:00,
2013-10-31 21:09:00,66.9,64.2,29.75,SSE,167,4.0,14.0,91,0.01,,---,0.02,VWS V14.01,2013-11-01 01:09:00,
2013-10-31 21:10:00,70.2,64.1,29.77,SW,228,1.0,11.0,81,0.00,,---,0.00,VWS V14.01,2013-11-01 01:10:00,
2013-10-31 21:14:00,66.7,64.0,29.74,ESE,116,4.0,12.0,91,0.02,,---,0.03,VWS V14.01,2013-11-01 01:14:00,
2013-10-31 21:15:00,70.2,64.1,29.77,SE,128,0.0,13.0,81,0.00,,---,0.00,VWS V14.01,2013-11-01 01:15:00,
2013-10-31 21:19:00,66.5,64.1,29.74,SW,235,1.0,9.0,92,0.02,,---,0.03,VWS V14.01,2013-11-01 01:19:00,
2013-10-31 21:20:00,70.1,64.0,29.77,SW,231,8.0,10.0,81,0.00,,---,0.00,VWS V14.01,2013-11-01 01:20:00,
2013-10-31 21:25:00,66.4,64.0,29.73,SW,232,7.0,9.0,92,0.03,,---,0.04,VWS V14.01,2013-11-01 01:25:00,
2013-10-31 21:30:00,66.3,64.2,29.72,South,180,5.0,6.0,93,0.03,,---,0.04,VWS V14.01,2013-11-01 01:30:00,
2013-10-31 21:35:00,66.2,64.1,29.71,SSE,152,5.0,7.0,93,0.03,,---,0.04,VWS V14.01,2013-11-01 01:35:00,
2013-10-31 21:40:00,69.8,64.1,29.77,SSW,199,5.0,13.0,82,0.00,,---,0.00,VWS V14.01,2013-11-01 01:40:00,
2013-10-31 21:41:00,66.1,64.0,29.67,SE,129,3.0,10.0,93,0.03,,---,0.04,VWS V14.01,2013-11-01 01:41:00,
2013-10-31 21:45:00,69.5,64.1,29.77,SE,143,4.0,9.0,83,0.00,,---,0.00,VWS V14.01,2013-11-01 01:45:00,
2013-10-31 21:46:00,66.3,64.2,29.70,SW,231,6.0,18.0,93,0.03,,---,0.04,VWS V14.01,2013-11-01 01:46:00,
2013-10-31 21:50:00,69.4,64.0,29.77,South,187,4.0,16.0,83,0.00,,---,0.00,VWS V14.01,2013-11-01 01:50:00,
2013-10-31 21:51:00,66.4,64.3,29.71,SSE,163,4.0,11.0,93,0.03,,---,0.04,VWS V14.01,2013-11-01 01:51:00,
2013-10-31 21:55:00,69.3,64.3,29.77,SW,236,0.0,10.0,84,0.00,,---,0.00,VWS V14.01,2013-11-01 01:55:00,
2013-10-31 21:56:00,66.5,64.4,29.70,SSE,161,8.0,18.0,93,0.03,,---,0.04,VWS V14.01,2013-11-01 01:56:00,
2013-10-31 22:00:00,69.0,64.3,29.77,SE,137,4.0,12.0,85,0.00,,---,0.00,VWS V14.01,2013-11-01 02:00:00,
2013-10-31 22:01:00,66.5,64.4,29.70,South,174,20.0,20.0,93,0.03,,---,0.04,VWS V14.01,2013-11-01 02:01:00,
2013-10-31 22:05:00,68.6,64.2,29.77,WSW,243,3.0,9.0,86,0.01,,---,0.01,VWS V14.01,2013-11-01 02:05:00,
2013-10-31 22:07:00,66.5,64.4,29.69,SW,214,11.0,11.0,93,0.02,,---,0.04,VWS V14.01,2013-11-01 02:07:00,
2013-10-31 22:10:00,68.4,64.4,29.77,South,170,4.0,12.0,87,0.01,,---,0.01,VWS V14.01,2013-11-01 02:10:00,
2013-10-31 22:12:00,66.6,64.5,29.69,West,276,6.0,20.0,93,0.02,,---,0.04,VWS V14.01,2013-11-01 02:12:00,
2013-10-31 22:15:00,68.1,64.4,29.77,SSW,197,9.0,9.0,88,0.01,,---,0.01,VWS V14.01,2013-11-01 02:15:00,
2013-10-31 22:17:00,66.7,64.3,29.69,SSE,155,7.0,16.0,92,0.01,,---,0.04,VWS V14.01,2013-11-01 02:17:00,
2013-10-31 22:20:00,67.9,64.2,29.77,SSE,161,7.0,10.0,88,0.01,,---,0.01,VWS V14.01,2013-11-01 02:20:00,
2013-10-31 22:22:00,66.8,64.4,29.70,West,269,2.0,16.0,92,0.01,,---,0.04,VWS V14.01,2013-11-01 02:22:00,
2013-10-31 22:25:00,67.8,64.1,29.77,SSW,208,1.0,9.0,88,0.01,,---,0.01,VWS V14.01,2013-11-01 02:25:00,
2013-10-31 22:27:00,66.9,64.5,29.70,SSW,194,8.0,12.0,92,0.00,,---,0.04,VWS V14.01,2013-11-01 02:27:00,
2013-10-31 22:30:00,67.7,64.3,29.76,SSE,156,7.0,9.0,89,0.01,,---,0.01,VWS V14.01,2013-11-01 02:30:00,
2013-10-31 22:32:00,67.0,64.6,29.70,SSE,155,5.0,19.0,92,0.00,,---,0.04,VWS V14.01,2013-11-01 02:32:00,
2013-10-31 22:35:00,67.7,64.3,29.76,SSW,205,0.0,11.0,89,0.01,,---,0.01,VWS V14.01,2013-11-01 02:35:00,
2013-10-31 22:37:00,67.1,64.7,29.71,WSW,240,13.0,18.0,92,0.00,,---,0.04,VWS V14.01,2013-11-01 02:37:00,
2013-10-31 22:40:00,67.6,64.2,29.76,SW,235,5.0,6.0,89,0.01,,---,0.01,VWS V14.01,2013-11-01 02:40:00,
2013-10-31 22:42:00,67.3,64.9,29.71,WSW,245,3.0,12.0,92,0.00,,---,0.04,VWS V14.01,2013-11-01 02:42:00,
2013-10-31 22:45:00,67.5,64.2,29.76,SW,217,4.0,10.0,89,0.01,,---,0.01,VWS V14.01,2013-11-01 02:45:00,
2013-10-31 22:47:00,67.3,64.6,29.71,West,267,5.0,21.0,91,0.00,,---,0.04,VWS V14.01,2013-11-01 02:47:00,
2013-10-31 22:50:00,67.4,64.1,29.76,SSE,157,1.0,12.0,89,0.01,,---,0.01,VWS V14.01,2013-11-01 02:50:00,
2013-10-31 22:52:00,67.5,64.8,29.71,South,187,6.0,11.0,91,0.00,,---,0.04,VWS V14.01,2013-11-01 02:52:00,
2013-10-31 22:55:00,67.3,64.0,29.75,SW,217,2.0,8.0,89,0.01,,---,0.01,VWS V14.01,2013-11-01 02:55:00,
2013-10-31 22:57:00,67.5,64.8,29.70,South,169,5.0,21.0,91,0.00,,---,0.04,VWS V14.01,2013-11-01 02:57:00,
2013-10-31 23:00:00,67.2,64.2,29.75,WSW,254,5.0,11.0,90,0.01,,---,0.01,VWS V14.01,2013-11-01 03:00:00,
2013-10-31 23:02:00,67.5,64.8,29.70,SSE,164,5.0,13.0,91,0.00,,---,0.04,VWS V14.01,2013-11-01 03:02:00,
2013-10-31 23:05:00,67.0,64.0,29.75,SSW,200,0.0,12.0,90,0.02,,---,0.02,VWS V14.01,2013-11-01 03:05:00,
2013-10-31 23:07:00,67.4,65.0,29.70,West,266,2.0,8.0,92,0.00,,---,0.04,VWS V14.01,2013-11-01 03:07:00,
2013-10-31 23:10:00,66.9,64.2,29.75,WNW,288,3.0,14.0,91,0.01,,---,0.02,VWS V14.01,2013-11-01 03:10:00,
2013-10-31 23:12:00,67.5,64.8,29.71,SSE,149,7.0,17.0,91,0.00,,---,0.04,VWS V14.01,2013-11-01 03:12:00,
2013-10-31 23:15:00,66.7,64.0,29.74,South,172,3.0,12.0,91,0.02,,---,0.03,VWS V14.01,2013-11-01 03:15:00,
2013-10-31 23:17:00,67.5,65.1,29.70,SW,236,10.0,10.0,92,0.00,,---,0.04,VWS V14.01,2013-11-01 03:17:00,
2013-10-31 23:20:00,66.5,64.1,29.74,SSW,213,5.0,9.0,92,0.02,,---,0.03,VWS V14.01,2013-11-01 03:20:00,
2013-10-31 23:22:00,67.5,65.1,29.70,SW,235,11.0,11.0,92,0.00,,---,0.04,VWS V14.01,2013-11-01 03:22:00,
2013-10-31 23:25:00,66.4,64.0,29.73,SSE,167,5.0,22.0,92,0.03,,---,0.04,VWS V14.01,2013-11-01 03:25:00,
2013-10-31 23:27:00,67.5,65.1,29.70,SW,231,8.0,12.0,92,0.00,,---,0.04,VWS V14.01,2013-11-01 03:27:00,
2013-10-31 23:30:00,66.3,64.2,29.72,SSW,200,4.0,11.0,93,0.03,,---,0.04,VWS V14.01,2013-11-01 03:30:00,
2013-10-31 23:32:00,67.6,65.2,29.70,SSE,149,9.0,25.0,92,0.00,,---,0.04,VWS V14.01,2013-11-01 03:32:00,
2013-10-31 23:35:00,66.3,64.2,29.71,SSE,150,7.0,11.0,93,0.03,,---,0.04,VWS V14.01,2013-11-01 03:35:00,
2013-10-31 23:37:00,67.7,65.3,29.70,WSW,242,7.0,13.0,92,0.00,,---,0.04,VWS V14.01,2013-11-01 03:37:00,
2013-10-31 23:40:00,66.2,64.1,29.69,SE,124,4.0,10.0,93,0.03,,---,0.04,VWS V14.01,2013-11-01 03:40:00,
2013-10-31 23:42:00,67.7,65.3,29.71,SSW,209,4.0,14.0,92,0.01,,---,0.05,VWS V14.01,2013-11-01 03:42:00,
2013-10-31 23:45:00,66.2,64.1,29.68,West,261,9.0,11.0,93,0.03,,---,0.04,VWS V14.01,2013-11-01 03:45:00,
2013-10-31 23:47:00,67.8,65.4,29.71,SSW,197,12.0,15.0,92,0.01,,---,0.05,VWS V14.01,2013-11-01 03:47:00,
2013-10-31 23:50:00,66.3,64.2,29.70,SW,229,5.0,18.0,93,0.03,,---,0.04,VWS V14.01,2013-11-01 03:50:00,
2013-10-31 23:52:00,67.8,65.4,29.70,SW,219,12.0,14.0,92,0.01,,---,0.05,VWS V14.01,2013-11-01 03:52:00,
2013-10-31 23:55:00,66.4,64.3,29.70,West,273,4.0,16.0,93,0.03,,---,0.04,VWS V14.01,2013-11-01 03:55:00,
2013-10-31 23:57:00,67.8,65.4,29.69,WSW,243,5.0,12.0,92,0.01,,---,0.05,VWS V14.01,2013-11-01 03:57:00,